• In Belgium
  • List of Countries
  • For 7 days
  • Water Temperature
  • Satellite Maps
  • Weather Map
  • Weather Widgets
  • user-avatar
    Login

    Hourly Weather Uglovoye

    Today, 16 January, Tuesday

    Time Temperature Precipitation Wind Pressure Humidity
    00:00 -12°C° 0 mm 2 mps 766 mmHg 76%
    01:00 -12°C° 0 mm 2 mps 766 mmHg 75%
    02:00 -12°C° 0 mm 2 mps 766 mmHg 75%
    03:00 -12°C° 0 mm 2 mps 766 mmHg 72%
    04:00 -12°C° 0 mm 2 mps 765 mmHg 72%
    05:00 -10°C° 0 mm 1 mps 765 mmHg 71%
    06:00 -10°C° 0 mm 1 mps 765 mmHg 71%
    07:00 -9°C° 0.1 mm 1 mps 765 mmHg 73%
    08:00 -9°C° 0.1 mm 1 mps 764 mmHg 74%
    09:00 -8°C° 0 mm 0 mps 764 mmHg 71%
    10:00 -8°C° 0.1 mm 1 mps 764 mmHg 73%
    11:00 -7°C° 0.1 mm 1 mps 763 mmHg 74%
    12:00 -6°C° 0.1 mm 1 mps 763 mmHg 76%
    13:00 -4°C° 0 mm 1 mps 762 mmHg 76%
    14:00 -4°C° 0 mm 1 mps 762 mmHg 76%
    15:00 -3°C° 0 mm 1 mps 762 mmHg 76%
    16:00 -4°C° 0 mm 1 mps 762 mmHg 81%
    17:00 -7°C° 0 mm 1 mps 762 mmHg 86%
    18:00 -8°C° 0 mm 1 mps 762 mmHg 91%
    19:00 -8°C° 0 mm 1 mps 763 mmHg 92%
    20:00 -10°C° 0 mm 2 mps 763 mmHg 92%
    21:00 -10°C° 0 mm 2 mps 763 mmHg 93%
    22:00 -12°C° 0 mm 2 mps 763 mmHg 93%
    23:00 -12°C° 0 mm 2 mps 764 mmHg 93%

    Tomorrow, 17 January, Wednesday

    Time Temperature Precipitation Wind Pressure Humidity
    00:00 -12°C° 0 mm 2 mps 764 mmHg 93%
    01:00 -12°C° 0 mm 2 mps 764 mmHg 93%
    02:00 -13°C° 0 mm 2 mps 764 mmHg 93%
    03:00 -13°C° 0 mm 2 mps 764 mmHg 93%
    04:00 -13°C° 0 mm 2 mps 764 mmHg 92%
    05:00 -13°C° 0 mm 2 mps 764 mmHg 92%
    06:00 -13°C° 0 mm 2 mps 764 mmHg 91%
    07:00 -13°C° 0 mm 2 mps 764 mmHg 88%
    08:00 -10°C° 0 mm 1 mps 764 mmHg 85%
    09:00 -10°C° 0 mm 1 mps 764 mmHg 81%
    10:00 -8°C° 0 mm 1 mps 764 mmHg 75%
    11:00 -6°C° 0 mm 1 mps 764 mmHg 69%
    12:00 -3°C° 0 mm 1 mps 763 mmHg 62%
    13:00 -5°C° 0 mm 2 mps 763 mmHg 65%
    14:00 -4°C° 0 mm 2 mps 762 mmHg 67%
    15:00 -3°C° 0 mm 2 mps 761 mmHg 69%
    16:00 -4°C° 0 mm 2 mps 762 mmHg 75%
    17:00 -5°C° 0 mm 2 mps 762 mmHg 82%
    18:00 -6°C° 0 mm 2 mps 762 mmHg 89%
    19:00 -6°C° 0 mm 2 mps 761 mmHg 90%
    20:00 -6°C° 0 mm 2 mps 761 mmHg 91%
    21:00 -6°C° 0 mm 2 mps 761 mmHg 92%
    22:00 -5°C° 0.1 mm 2 mps 761 mmHg 92%
    23:00 -5°C° 0.1 mm 2 mps 760 mmHg 93%

    Day after tomorrow, 18 January, Thursday

    Time Temperature Precipitation Wind Pressure Humidity
    00:00 -5°C° 0.1 mm 2 mps 760 mmHg 94%
    01:00 -5°C° 0.4 mm 2 mps 760 mmHg 94%
    02:00 -5°C° 0.4 mm 2 mps 759 mmHg 95%
    03:00 -3°C° 0.4 mm 1 mps 759 mmHg 96%
    04:00 -3°C° 0.6 mm 1 mps 759 mmHg 96%
    05:00 -3°C° 0.6 mm 1 mps 759 mmHg 96%
    06:00 -3°C° 0.6 mm 1 mps 759 mmHg 96%
    07:00 -3°C° 0.1 mm 1 mps 759 mmHg 91%
    08:00 -5°C° 0.1 mm 2 mps 760 mmHg 86%
    09:00 -6°C° 0.1 mm 2 mps 760 mmHg 81%
    10:00 -6°C° 0 mm 3 mps 760 mmHg 74%
    11:00 -7°C° 0 mm 4 mps 761 mmHg 67%
    12:00 -7°C° 0 mm 4 mps 761 mmHg 60%
    13:00 -7°C° 0 mm 4 mps 761 mmHg 59%
    14:00 -7°C° 0 mm 4 mps 761 mmHg 57%
    15:00 -7°C° 0 mm 5 mps 761 mmHg 56%
    16:00 -8°C° 0 mm 4 mps 762 mmHg 60%
    17:00 -9°C° 0 mm 4 mps 763 mmHg 64%
    18:00 -10°C° 0 mm 3 mps 763 mmHg 68%
    19:00 -10°C° 0 mm 3 mps 764 mmHg 67%
    20:00 -12°C° 0 mm 3 mps 764 mmHg 67%
    21:00 -12°C° 0 mm 3 mps 765 mmHg 66%
    22:00 -13°C° 0 mm 3 mps 765 mmHg 68%
    23:00 -13°C° 0 mm 2 mps 766 mmHg 70%

    19 January, Friday

    Time Temperature Precipitation Wind Pressure Humidity
    00:00 -13°C° 0 mm 2 mps 766 mmHg 72%
    01:00 -14°C° 0 mm 2 mps 766 mmHg 73%
    02:00 -12°C° 0 mm 1 mps 767 mmHg 74%
    03:00 -12°C° 0 mm 1 mps 767 mmHg 74%
    04:00 -12°C° 0 mm 1 mps 767 mmHg 73%
    05:00 -13°C° 0 mm 1 mps 767 mmHg 73%
    06:00 -13°C° 0 mm 1 mps 766 mmHg 72%
    07:00 -12°C° 0 mm 1 mps 766 mmHg 69%
    08:00 -11°C° 0 mm 1 mps 766 mmHg 67%
    09:00 -11°C° 0 mm 1 mps 766 mmHg 64%
    10:00 -9°C° 0 mm 1 mps 766 mmHg 59%
    11:00 -8°C° 0 mm 2 mps 765 mmHg 55%
    12:00 -6°C° 0 mm 2 mps 765 mmHg 51%
    13:00 -6°C° 0 mm 2 mps 764 mmHg 53%
    14:00 -6°C° 0 mm 3 mps 763 mmHg 55%
    15:00 -6°C° 0 mm 3 mps 762 mmHg 57%
    16:00 -7°C° 0 mm 3 mps 762 mmHg 66%
    17:00 -7°C° 0 mm 2 mps 763 mmHg 75%
    18:00 -7°C° 0 mm 1 mps 763 mmHg 84%
    19:00 -7°C° 0 mm 1 mps 763 mmHg 85%
    20:00 -7°C° 0 mm 1 mps 763 mmHg 86%
    21:00 -7°C° 0 mm 1 mps 763 mmHg 87%
    22:00 -7°C° 0 mm 1 mps 763 mmHg 84%
    23:00 -7°C° 0 mm 1 mps 763 mmHg 82%

    20 January, Saturday

    Time Temperature Precipitation Wind Pressure Humidity
    00:00 -8°C° 0 mm 1 mps 763 mmHg 79%
    01:00 -8°C° 0 mm 1 mps 763 mmHg 79%
    02:00 -9°C° 0 mm 1 mps 763 mmHg 79%
    03:00 -9°C° 0 mm 1 mps 763 mmHg 78%
    04:00 -10°C° 0 mm 1 mps 764 mmHg 80%
    05:00 -10°C° 0 mm 1 mps 764 mmHg 81%
    06:00 -11°C° 0 mm 1 mps 764 mmHg 83%
    07:00 -10°C° 0 mm 1 mps 764 mmHg 79%
    08:00 -10°C° 0 mm 1 mps 764 mmHg 76%
    09:00 -10°C° 0 mm 1 mps 765 mmHg 72%
    10:00 -8°C° 0 mm 1 mps 764 mmHg 65%
    11:00 -8°C° 0 mm 2 mps 764 mmHg 58%
    12:00 -8°C° 0 mm 3 mps 764 mmHg 51%
    13:00 -8°C° 0 mm 3 mps 764 mmHg 48%
    14:00 -9°C° 0 mm 4 mps 764 mmHg 45%
    15:00 -9°C° 0 mm 4 mps 764 mmHg 42%
    16:00 -9°C° 0 mm 3 mps 764 mmHg 47%
    17:00 -10°C° 0 mm 3 mps 765 mmHg 51%
    18:00 -12°C° 0 mm 2 mps 765 mmHg 56%
    19:00 -12°C° 0 mm 2 mps 766 mmHg 55%
    20:00 -12°C° 0 mm 2 mps 766 mmHg 54%
    21:00 -14°C° 0 mm 3 mps 766 mmHg 54%
    22:00 -13°C° 0 mm 2 mps 767 mmHg 56%
    23:00 -14°C° 0 mm 2 mps 767 mmHg 59%

    21 January, Sunday

    Time Temperature Precipitation Wind Pressure Humidity
    00:00 -15°C° 0 mm 2 mps 767 mmHg 61%
    01:00 -15°C° 0 mm 2 mps 767 mmHg 63%
    02:00 -15°C° 0 mm 2 mps 767 mmHg 64%
    03:00 -16°C° 0 mm 2 mps 768 mmHg 65%
    04:00 -16°C° 0 mm 2 mps 768 mmHg 65%
    05:00 -16°C° 0 mm 2 mps 768 mmHg 65%
    06:00 -16°C° 0 mm 2 mps 767 mmHg 65%
    07:00 -16°C° 0 mm 2 mps 768 mmHg 62%
    08:00 -15°C° 0 mm 2 mps 768 mmHg 59%
    09:00 -15°C° 0 mm 2 mps 768 mmHg 56%
    10:00 -15°C° 0 mm 3 mps 768 mmHg 51%
    11:00 -14°C° 0 mm 3 mps 767 mmHg 45%
    12:00 -13°C° 0 mm 3 mps 767 mmHg 40%
    13:00 -13°C° 0 mm 3 mps 767 mmHg 42%
    14:00 -13°C° 0 mm 3 mps 766 mmHg 44%
    15:00 -13°C° 0 mm 3 mps 766 mmHg 47%
    16:00 -14°C° 0 mm 3 mps 766 mmHg 51%
    17:00 -14°C° 0 mm 3 mps 767 mmHg 56%
    18:00 -15°C° 0 mm 3 mps 767 mmHg 61%
    19:00 -16°C° 0 mm 3 mps 767 mmHg 61%
    20:00 -16°C° 0 mm 3 mps 767 mmHg 61%
    21:00 -16°C° 0 mm 3 mps 767 mmHg 61%
    22:00 -18°C° 0 mm 4 mps 768 mmHg 61%
    23:00 -19°C° 0 mm 4 mps 768 mmHg 61%
    Show more